Weather History for Pocatello, ID

Change the Weather History Date:

Wednesday, November 21, 2012

  Actual Average Record
Temperature  
Mean Temperature 45 °F 32 °F  
Max Temperature 55 °F 41 °F 57 °F (2006)
Min Temperature 34 °F 22 °F 5 °F (1941)
Degree Days  
Heating Degree Days 20 33  
Month to date heating degree days 503 600  
Since 1 July heating degree days 1201 1407  
Cooling Degree Days 0 0  
Month to date cooling degree days 0 0  
Year to date cooling degree days 560 392  
Moisture  
Dew Point 32 °F    
Average Humidity 59    
Maximum Humidity 79    
Minimum Humidity 38    
Precipitation  
Precipitation 0.07 in 0.04 in 0.25 in (1940)
Month to date precipitation 1.16 0.74  
Year to date precipitation 8.75 10.52  
Snow  
Snow 0.00 in - - ()
Month to date snowfall 4.9  
Since 1 July snowfall 7.1  
Since 1 September snowfall 7.1  
Snow Depth 0.00 in    
Sea Level Pressure  
Sea Level Pressure 29.94 in    
Wind  
Wind Speed 19 mph (SSW)    
Max Wind Speed 32 mph    
Max Gust Speed 41 mph    
Visibility 10 miles    
Events Rain    
T = Trace of Precipitation, MM = Missing Value Source: NWS Daily Summary

Daily Weather History Graph

Daily Weather History Graph

Search for Another Location

Airport:

Trip Planner

Search our weather history database for the weather conditions in past years. The results will help you decide how hot, cold, wet, or windy it might be!

Date:

Astronomy

Nov. 21, 2012 Rise Set
Actual Time 7:30 AM MST 5:01 PM MST
Civil Twilight 6:59 AM MST 5:32 PM MST
Nautical Twilight 6:24 AM MST 6:07 PM MST
Astronomical Twilight 5:51 AM MST 6:41 PM MST
Moon 1:28 PM MST 12:44 AM MST
Length of Visible Light 10h 33m
Length of Day
9h 31m
Waxing Gibbous, 62% of the Moon is Illuminated
Nov 21
Waxing Gibbous
Nov 28
Full
Dec 6
Last Quarter
Dec 13
New
Dec 19
First Quarter

Hourly Weather History & Observations

Time (MST) Temp. Windchill Dew Point Humidity Pressure Visibility Wind Dir Wind Speed Gust Speed Precip Events Conditions
12:53 AM 54.0 °F - 30.0 °F 40% 29.86 in 10.0 mi South 27.6 mph 35.7 mph N/A   Clear
1:53 AM 53.1 °F - 28.9 °F 40% 29.83 in 10.0 mi South 21.9 mph 31.1 mph N/A   Clear
2:53 AM 54.0 °F - 28.0 °F 37% 29.84 in 10.0 mi South 28.8 mph 41.4 mph N/A   Clear
3:53 AM 53.1 °F - 28.9 °F 40% 29.81 in 10.0 mi South 26.5 mph 36.8 mph N/A   Clear
4:53 AM 53.6 °F - 28.4 °F 38% 29.87 in 10.0 mi South 24.2 mph 36.8 mph N/A   Partly Cloudy
5:53 AM 53.1 °F - 28.9 °F 40% 29.85 in 10.0 mi South 20.7 mph 27.6 mph N/A   Overcast
6:53 AM 52.0 °F - 28.0 °F 40% 29.85 in 10.0 mi South 20.7 mph - N/A   Scattered Clouds
7:53 AM 52.0 °F - 28.0 °F 40% 29.86 in 10.0 mi South 23.0 mph 29.9 mph 0.00 in Rain Light Rain
8:53 AM 52.0 °F - 28.0 °F 40% 29.86 in 10.0 mi South 18.4 mph 26.5 mph 0.00 in   Overcast
9:53 AM 53.1 °F - 28.0 °F 38% 29.88 in 10.0 mi SSW 15.0 mph 21.9 mph N/A   Overcast
10:53 AM 53.1 °F - 30.9 °F 43% 29.90 in 10.0 mi SW 3.5 mph - 0.00 in   Mostly Cloudy
11:53 AM 52.0 °F - 30.0 °F 43% 29.89 in 10.0 mi South 12.7 mph - 0.00 in Rain Light Rain
12:53 PM 48.0 °F - 37.0 °F 66% 29.92 in 10.0 mi SW 19.6 mph 28.8 mph 0.01 in Rain Light Rain
1:53 PM 48.0 °F - 39.9 °F 74% 29.89 in 10.0 mi South 9.2 mph - 0.01 in   Mostly Cloudy
2:53 PM 44.1 °F 35.4 °F 39.9 °F 85% 29.92 in 2.5 mi West 21.9 mph 33.4 mph 0.01 in Rain Light Rain
3:03 PM 44.6 °F 36.6 °F 39.2 °F 81% 29.96 in 5.0 mi West 19.6 mph 27.6 mph 0.02 in Rain Light Rain
3:53 PM 45.0 °F 40.6 °F 41.0 °F 86% 29.94 in 10.0 mi SW 8.1 mph - 0.04 in   Mostly Cloudy
4:53 PM 44.1 °F 40.8 °F 39.9 °F 85% 29.96 in 10.0 mi WSW 5.8 mph - 0.00 in Rain Light Rain
5:53 PM 44.1 °F 36.8 °F 39.0 °F 82% 29.97 in 10.0 mi SW 16.1 mph - 0.00 in   Overcast
6:53 PM 39.9 °F 29.2 °F 34.0 °F 79% 30.04 in 10.0 mi SW 25.3 mph 31.1 mph N/A   Overcast
7:53 PM 37.9 °F 26.6 °F 30.9 °F 76% 30.10 in 10.0 mi SW 25.3 mph 32.2 mph 0.00 in   Overcast
8:53 PM 37.0 °F 27.0 °F 30.0 °F 76% 30.11 in 10.0 mi SSW 18.4 mph 25.3 mph 0.00 in   Overcast
9:53 PM 37.0 °F 26.7 °F 27.0 °F 67% 30.14 in 10.0 mi SW 19.6 mph - N/A   Mostly Cloudy
10:53 PM 36.0 °F 25.0 °F 27.0 °F 70% 30.15 in 10.0 mi SW 20.7 mph 32.2 mph N/A   Mostly Cloudy
11:53 PM 34.0 °F 22.7 °F 27.0 °F 75% 30.18 in 10.0 mi WSW 19.6 mph - N/A   Clear